GW4266 Weather Reports


time (UTC)temp
C
wind
direction
speed
KPH
gust
KPH
rain 1hr
cm
rain 24hr
cm
rain mn
cm
humidity
%
barometer
mb
20260506103530 23 147 3.2 6.4 0.00 0.00 0.00 93 1013.1
20260506103027 23 98 0.0 1.6 0.00 0.00 0.00 93 1012.9
20260506102525 23 113 0.0 3.2 0.00 0.00 0.00 93 1012.7
20260506102022 23 105 0.0 1.6 0.00 0.00 0.00 93 1012.8
20260506101519 23 156 0.0 0.0 0.00 0.00 0.00 93 1012.9
20260506101016 23 119 0.0 4.8 0.00 0.00 0.00 93 1012.6
20260506100514 23 256 0.0 3.2 0.00 0.00 0.00 92 1012.6
20260506100012 23 125 0.0 0.0 0.00 0.00 0.00 93 1012.5
20260506095511 23 147 0.0 3.2 0.00 0.00 0.00 92 1012.5
20260506095006 23 119 0.0 1.6 0.00 0.00 0.00 92 1012.4
20260506094505 23 188 1.6 1.6 0.00 0.00 0.00 92 1012.5
20260506094002 23 116 0.0 1.6 0.00 0.00 0.00 92 1012.4
20260506093500 23 180 0.0 1.6 0.00 0.00 0.00 92 1012.1
20260506092957 23 84 1.6 6.4 0.00 0.00 0.00 92 1012.3
20260506092455 23 171 0.0 4.8 0.00 0.00 0.00 92 1012.1
20260506091951 23 235 0.0 3.2 0.00 0.00 0.00 92 1012.0
20260506091450 23 216 0.0 1.6 0.00 0.00 0.00 92 1012.0
20260506090947 23 164 0.0 3.2 0.00 0.00 0.00 93 1012.4
20260506090445 23 116 0.0 1.6 0.00 0.00 0.00 93 1012.2
20260506085940 23 113 0.0 4.8 0.00 0.00 0.00 93 1012.0
20260506085438 23 159 0.0 6.4 0.00 0.00 0.00 92 1012.0
20260506084934 23 193 0.0 4.8 0.00 0.00 0.00 92 1012.0
20260506084431 23 180 0.0 3.2 0.00 0.00 0.00 92 1012.1
20260506083927 23 241 0.0 3.2 0.00 0.00 0.00 92 1011.9
20260506083424 23 193 0.0 1.6 0.00 0.00 0.00 92 1011.8
20260506082922 23 222 0.0 3.2 0.00 0.00 0.00 92 1012.1
20260506082419 23 247 0.0 8.0 0.00 0.00 0.00 92 1012.1
20260506081914 23 164 0.0 3.2 0.00 0.00 0.00 92 1012.1
20260506081413 23 180 0.0 4.8 0.00 0.00 0.00 92 1012.2
20260506080910 23 193 0.0 3.2 0.00 0.00 0.00 92 1011.9
20260506080406 23 126 3.2 4.8 0.00 0.00 0.00 92 1012.0
20260506073350 23 142 3.2 8.0 0.00 0.00 0.00 91 1012.2
20260506072847 23 90 0.0 8.0 0.00 0.00 0.00 91 1012.3
20260506072345 23 164 3.2 4.8 0.00 0.00 0.00 91 1012.2
20260506071843 23 122 3.2 6.4 0.00 0.00 0.00 91 1012.4
20260506071341 24 200 3.2 8.0 0.00 0.00 0.00 91 1012.4
20260506070837 24 190 3.2 11.3 0.00 0.00 0.00 91 1012.4
20260506070334 24 162 0.0 9.7 0.00 0.00 0.00 91 1012.3
20260506062311 23 195 1.6 4.8 0.00 0.00 0.00 92 1012.5
20260506061807 23 171 0.0 6.4 0.00 0.00 0.00 92 1012.3
20260506061304 23 150 0.0 4.8 0.00 0.00 0.00 92 1012.4
20260506060802 23 116 6.4 6.4 0.00 0.00 0.00 92 1012.4
20260506060300 23 124 3.2 4.8 0.00 0.00 0.00 92 1012.5
20260506051231 24 135 4.8 11.3 0.00 0.00 0.00 91 1012.4
20260506050730 24 180 3.2 11.3 0.00 0.00 0.00 91 1012.5
20260506050227 23 204 3.2 11.3 0.00 0.00 0.00 91 1012.5
20260506044717 24 95 0.0 8.0 0.00 0.00 0.00 92 1012.3
20260506044215 24 180 3.2 8.0 0.00 0.00 0.00 92 1012.3
20260506043712 24 187 0.0 6.4 0.00 0.00 0.00 92 1012.3
20260506043210 24 140 6.4 6.4 0.00 0.00 0.00 92 1012.4
20260506042708 24 167 0.0 6.4 0.00 0.00 0.00 92 1012.5
20260506042206 24 160 4.8 4.8 0.00 0.00 0.00 91 1012.5
20260506041704 24 125 0.0 8.0 0.00 0.00 0.00 91 1012.4
20260506041201 24 122 3.2 11.3 0.00 0.00 0.00 91 1012.3
20260506040658 24 147 3.2 6.4 0.00 0.00 0.00 91 1012.1
20260506040155 24 112 3.2 9.7 0.00 0.00 0.00 91 1012.2
20260506035652 24 216 1.6 11.3 0.00 0.00 0.00 91 1012.0
20260506035149 24 121 0.0 8.0 0.00 0.00 0.00 91 1012.2
20260506034646 24 153 0.0 6.4 0.00 0.00 0.00 91 1012.2
20260506034143 24 180 0.0 6.4 0.00 0.00 0.00 91 1011.9
20260506033640 24 150 0.0 8.0 0.00 0.00 0.00 90 1011.9
20260506033137 24 97 0.0 8.0 0.00 0.00 0.00 90 1011.9
20260506032634 25 113 0.0 8.0 0.00 0.00 0.00 90 1011.8
20260506032131 25 135 4.8 4.8 0.00 0.00 0.00 90 1012.0
20260506031628 25 123 3.2 4.8 0.00 0.00 0.00 89 1011.9
20260506031125 25 105 3.2 9.7 0.00 0.00 0.00 89 1011.9
20260506030623 25 138 3.2 4.8 0.00 0.00 0.00 88 1011.7
20260506030120 25 156 3.2 6.4 0.00 0.00 0.00 88 1011.6
20260506025617 25 104 3.2 4.8 0.00 0.00 0.00 88 1011.5
20260506025113 25 172 0.0 6.4 0.00 0.00 0.00 88 1011.5
20260506024611 25 135 0.0 0.0 0.00 0.00 0.00 88 1011.5
20260506024107 25 84 0.0 4.8 0.00 0.00 0.00 88 1011.3
20260506023603 25 125 0.0 1.6 0.00 0.00 0.00 87 1011.3
20260506023100 25 120 3.2 3.2 0.00 0.00 0.00 87 1011.3
20260506022558 25 109 0.0 3.2 0.00 0.00 0.00 87 1011.1
20260506022055 25 145 0.0 3.2 0.00 0.00 0.00 86 1011.0
20260506021553 25 156 0.0 0.0 0.00 0.00 0.00 86 1010.8
20260506021050 25 153 0.0 3.2 0.00 0.00 0.00 86 1010.8
20260506020547 25 114 0.0 6.4 0.00 0.00 0.00 85 1010.6
20260506020044 25 144 1.6 4.8 0.00 0.00 0.00 85 1010.5
20260506015542 25 113 0.0 4.8 0.00 0.00 0.00 85 1010.3
20260506015039 25 113 3.2 4.8 0.00 0.00 0.00 85 1010.2
20260506014536 25 156 3.2 6.4 0.00 0.00 0.00 85 1010.0
20260506014032 25 113 0.0 4.8 0.00 0.00 0.00 84 1010.2
20260506013531 25 147 0.0 3.2 0.00 0.00 0.00 84 1010.4
20260506013026 25 124 0.0 4.8 0.00 0.00 0.00 84 1010.2
20260506012523 26 112 0.0 3.2 0.00 0.00 0.00 83 1010.2
20260506012020 26 144 0.0 3.2 0.00 0.00 0.00 83 1010.0
20260506011517 26 138 0.0 3.2 0.00 0.00 0.00 82 1010.1
20260506011013 26 138 3.2 3.2 0.00 0.00 0.00 81 1010.2
20260506010513 26 119 0.0 1.6 0.00 0.00 0.00 80 1010.1
20260506010009 26 140 0.0 0.0 0.00 0.00 0.00 80 1010.2
20260506005506 27 125 0.0 0.0 0.00 0.00 0.00 79 1010.1
20260506005002 27 180 0.0 3.2 0.00 0.00 0.00 79 1010.0
20260506004500 27 143 0.0 4.8 0.00 0.00 0.00 79 1010.3
20260506003955 27 125 0.0 3.2 0.00 0.00 0.00 78 1010.0
20260506003452 27 164 0.0 3.2 0.00 0.00 0.00 78 1010.2
20260506002948 27 119 0.0 3.2 0.00 0.00 0.00 78 1010.0
20260506002445 27 126 0.0 3.2 0.00 0.00 0.00 77 1010.2
20260506001940 27 125 0.0 1.6 0.00 0.00 0.00 76 1010.0
20260506001437 27 116 0.0 3.2 0.00 0.00 0.00 77 1010.2
20260506000934 28 127 0.0 0.0 0.00 0.00 0.00 76 1010.2
20260506000432 28 105 0.0 1.6 0.00 0.00 0.00 75 1010.2
20260505235929 28 139 0.0 3.2 0.00 0.00 0.00 75 1010.1
20260505235427 28 104 0.0 4.8 0.00 0.00 0.00 74 1009.9
20260505234923 28 189 0.0 6.4 0.00 0.00 0.00 74 1009.9
20260505234421 28 142 0.0 3.2 0.00 0.00 0.00 74 1010.1
20260505233917 28 196 0.0 4.8 0.00 0.00 0.00 73 1009.8
20260505233415 28 156 0.0 4.8 0.00 0.00 0.00 72 1009.7
20260505232913 28 130 0.0 3.2 0.00 0.00 0.00 72 1009.7
20260505232410 28 165 0.0 4.8 0.00 0.00 0.00 72 1009.8
20260505231907 28 163 0.0 4.8 0.00 0.00 0.00 72 1010.0
20260505231404 28 96 0.0 4.8 0.00 0.00 0.00 72 1009.8
20260505230902 28 217 0.0 4.8 0.00 0.00 0.00 71 1009.8
20260505230400 29 189 0.0 4.8 0.00 0.00 0.00 71 1009.8
20260505225856 28 207 6.4 6.4 0.00 0.00 0.00 72 1010.0
20260505225353 29 147 0.0 4.8 0.00 0.00 0.00 71 1009.7
20260505224848 29 131 0.0 9.7 0.00 0.00 0.00 70 1009.7
20260505224346 30 150 0.0 4.8 0.00 0.00 0.00 70 1009.8
20260505223843 29 153 0.0 8.0 0.00 0.00 0.00 71 1009.6
20260505223340 29 114 0.0 8.0 0.00 0.00 0.00 69 1009.7
20260505222836 30 262 0.0 6.4 0.00 0.00 0.00 69 1010.0
20260505222332 29 180 0.0 8.0 0.00 0.00 0.00 69 1009.6
20260505221829 30 180 0.0 9.7 0.00 0.00 0.00 70 1009.6
20260505221326 30 156 1.6 4.8 0.00 0.00 0.00 68 1009.7
20260505220823 30 122 0.0 4.8 0.00 0.00 0.00 68 1009.8
20260505220320 30 193 1.6 6.4 0.00 0.00 0.00 68 1009.6
20260505215818 30 245 6.4 6.4 0.00 0.00 0.00 67 1009.5
20260505215316 30 116 1.6 3.2 0.00 0.00 0.00 66 1009.6
20260505214814 30 251 4.8 6.4 0.00 0.00 0.00 65 1009.7
20260505214311 30 241 4.8 4.8 0.00 0.00 0.00 67 1009.8
20260505213808 30 105 0.0 8.0 0.00 0.00 0.00 68 1009.9
20260505213306 31 125 0.0 8.0 0.00 0.00 0.00 65 1010.0
20260505212801 31 195 3.2 11.3 0.00 0.00 0.00 65 1010.0
20260505212259 31 241 0.0 6.4 0.00 0.00 0.00 64 1010.2
20260505211755 31 217 4.8 4.8 0.00 0.00 0.00 66 1010.5
20260505211253 30 229 0.0 6.4 0.00 0.00 0.00 67 1010.2
20260505210749 30 120 6.4 11.3 0.00 0.00 0.00 66 1010.0
20260505210246 31 156 0.0 8.0 0.00 0.00 0.00 66 1010.1
20260505205743 31 180 3.2 11.3 0.00 0.00 0.00 65 1010.4
20260505205241 31 156 3.2 8.0 0.00 0.00 0.00 66 1010.1
20260505204737 30 167 1.6 9.7 0.00 0.00 0.00 65 1010.3
20260505204235 31 123 4.8 6.4 0.00 0.00 0.00 65 1010.3
20260505203732 31 167 3.2 6.4 0.00 0.00 0.00 66 1010.4
20260505203229 31 180 0.0 4.8 0.00 0.00 0.00 67 1010.6
20260505202725 30 244 4.8 9.7 0.00 0.00 0.00 68 1010.6
20260505202221 30 153 0.0 8.0 0.00 0.00 0.00 67 1011.0
20260505201718 30 165 1.6 8.0 0.00 0.00 0.00 69 1011.0
20260505201216 30 192 0.0 8.0 0.00 0.00 0.00 68 1010.8
20260505200714 30 180 0.0 6.4 0.00 0.00 0.00 69 1011.3
20260505200210 30 229 0.0 8.0 0.00 0.00 0.00 68 1011.1
20260505195706 30 187 1.6 14.5 0.00 0.00 0.00 68 1011.4
20260505195204 29 234 3.2 9.7 0.00 0.00 0.00 68 1011.5
20260505194701 30 156 3.2 4.8 0.00 0.00 0.00 68 1011.3
20260505194157 30 164 3.2 4.8 0.00 0.00 0.00 68 1011.5
20260505193653 29 199 0.0 3.2 0.00 0.00 0.00 70 1011.5
20260505193150 30 168 4.8 6.4 0.00 0.00 0.00 68 1011.8
20260505192649 30 175 3.2 9.7 0.00 0.00 0.00 67 1011.7
20260505192146 30 175 3.2 4.8 0.00 0.00 0.00 68 1011.5
20260505191644 30 164 0.0 9.7 0.00 0.00 0.00 70 1011.6
20260505191142 29 180 0.0 8.0 0.00 0.00 0.00 71 1011.7
20260505190638 28 252 0.0 9.7 0.00 0.00 0.00 70 1011.7
20260505190132 29 197 6.4 6.4 0.00 0.00 0.00 69 1011.8
20260505185630 29 229 3.2 6.4 0.00 0.00 0.00 69 1011.8
20260505185126 29 152 0.0 4.8 0.00 0.00 0.00 69 1011.7
20260505184623 28 150 1.6 4.8 0.00 0.00 0.00 71 1011.7
20260505184120 28 258 1.6 4.8 0.00 0.00 0.00 73 1012.2
20260505183616 28 222 3.2 6.4 0.00 0.00 0.00 73 1012.2
20260505183114 28 222 3.2 4.8 0.00 0.00 0.00 73 1012.2
20260505182610 27 255 0.0 4.8 0.00 0.00 0.00 74 1012.4
20260505182107 27 190 3.2 6.4 0.00 0.00 0.00 75 1012.3
20260505181604 27 176 0.0 4.8 0.00 0.00 0.00 75 1012.5
20260505181101 26 233 3.2 4.8 0.00 0.00 0.00 76 1012.6
20260505180556 26 164 0.0 6.4 0.00 0.00 0.00 76 1012.5
20260505180055 26 187 4.8 8.0 0.00 0.00 0.00 77 1012.6
20260505175550 26 95 3.2 8.0 0.00 0.00 0.00 77 1012.7
20260505175047 26 144 0.0 4.8 0.00 0.00 0.00 77 1013.0
20260505174544 26 205 0.0 6.4 0.00 0.00 0.00 78 1012.7
20260505174040 26 150 0.0 9.7 0.00 0.00 0.00 79 1012.7
20260505173537 26 180 3.2 6.4 0.00 0.00 0.00 79 1012.9
20260505173033 25 210 0.0 6.4 0.00 0.00 0.00 79 1012.9
20260505172531 26 245 4.8 8.0 0.00 0.00 0.00 79 1012.8
20260505172027 25 167 1.6 4.8 0.00 0.00 0.00 79 1012.9
20260505171522 25 146 0.0 4.8 0.00 0.00 0.00 81 1013.1
20260505171019 25 222 3.2 4.8 0.00 0.00 0.00 81 1013.1
20260505170516 25 173 1.6 4.8 0.00 0.00 0.00 82 1013.1
20260505170012 25 168 0.0 8.0 0.00 0.00 0.00 82 1013.2
20260505165507 25 158 3.2 4.8 0.00 0.00 0.00 83 1013.2
20260505165003 25 225 4.8 4.8 0.00 0.00 0.00 82 1013.1
20260505164459 24 193 1.6 6.4 0.00 0.00 0.00 83 1013.1
20260505163958 24 180 1.6 3.2 0.00 0.00 0.00 84 1013.0
20260505163456 24 222 0.0 4.8 0.00 0.00 0.00 84 1012.9
20260505162955 24 165 0.0 4.8 0.00 0.00 0.00 84 1013.1
20260505162451 24 171 0.0 3.2 0.00 0.00 0.00 84 1012.9
20260505161948 23 234 0.0 3.2 0.00 0.00 0.00 85 1012.9
20260505161444 23 174 1.6 9.7 0.00 0.00 0.00 86 1013.2
20260505160942 23 163 3.2 3.2 0.00 0.00 0.00 87 1013.2
20260505160440 23 324 0.0 3.2 0.00 0.00 0.00 88 1013.2
20260505152916 22 180 0.0 4.8 0.00 0.00 0.00 90 1013.3
20260505152413 22 98 0.0 3.2 0.00 0.00 0.00 90 1013.3
20260505151913 22 191 0.0 3.2 0.00 0.00 0.00 90 1013.3
20260505151404 22 180 0.0 3.2 0.00 0.00 0.00 90 1012.9
20260505150901 22 270 0.0 4.8 0.00 0.00 0.00 90 1013.2
20260505150359 22 109 0.0 4.8 0.00 0.00 0.00 91 1013.3
20260505140328 21 225 0.0 4.8 0.00 0.00 0.00 92 1012.6
20260505130252 21 156 1.6 4.8 0.00 0.00 0.00 92 1012.1
20260505124742 21 189 0.0 3.2 0.00 0.00 0.00 92 1011.9
20260505124239 21 110 1.6 3.2 0.00 0.00 0.00 91 1011.9
20260505123734 21 126 0.0 4.8 0.00 0.00 0.00 91 1012.0
20260505123231 21 180 0.0 4.8 0.00 0.00 0.00 91 1011.8
20260505122728 21 180 0.0 4.8 0.00 0.00 0.00 92 1011.9
20260505122225 21 244 0.0 4.8 0.00 0.00 0.00 92 1011.8
20260505121717 21 171 0.0 0.0 0.00 0.00 0.00 92 1011.7
20260505121213 21 147 0.0 3.2 0.00 0.00 0.00 92 1011.5
20260505120710 21 90 0.0 1.6 0.00 0.00 0.00 92 1011.4
20260505120205 21 173 1.6 3.2 0.00 0.00 0.00 92 1011.5
20260505115658 21 144 0.0 6.4 0.00 0.00 0.00 92 1011.3
20260505115156 21 150 0.0 3.2 0.00 0.00 0.00 92 1011.1
20260505114653 21 164 0.0 1.6 0.00 0.00 0.00 92 1011.5
20260505114149 21 189 0.0 3.2 0.00 0.00 0.00 92 1011.5
20260505113646 21 164 0.0 3.2 0.00 0.00 0.00 92 1011.6
20260505113143 21 187 0.0 3.2 0.00 0.00 0.00 92 1011.3
20260505112639 21 180 1.6 3.2 0.00 0.00 0.00 92 1011.1
20260505112138 21 94 3.2 3.2 0.00 0.00 0.00 92 1011.4
20260505111636 21 241 1.6 3.2 0.00 0.00 0.00 92 1011.4
20260505111133 21 195 1.6 4.8 0.00 0.00 0.00 92 1011.4
20260505110629 21 213 0.0 3.2 0.00 0.00 0.00 92 1011.5
20260505110126 21 242 0.0 4.8 0.00 0.00 0.00 92 1011.3